Weather History for Delta, CO

Change the Weather History Date:

Monday, April 29, 2013

  Actual Average (KMTJ) Record (KMTJ)
Temperature  
Mean Temperature 64 °F 53 °F  
Max Temperature 83 °F 67 °F 81 °F (2007)
Min Temperature 45 °F 38 °F 29 °F (2014)
Degree Days  
Heating Degree Days 1 12  
Month to date heating degree days 470  
Since 1 July heating degree days 5926  
Cooling Degree Days 0 0  
Month to date cooling degree days 0  
Year to date cooling degree days 0  
Growing Degree Days 14 (Base 50)    
Moisture  
Dew Point 22 °F    
Average Humidity 24    
Maximum Humidity 50    
Minimum Humidity 7    
Precipitation  
Precipitation 0.00 in 0.04 in 0.21 in (2004)
Month to date precipitation 0.94  
Year to date precipitation 3.19  
Sea Level Pressure  
Sea Level Pressure 29.88 in    
Wind  
Wind Speed 5 mph (NNE)    
Max Wind Speed 21 mph    
Max Gust Speed 30 mph    
Visibility 10 miles    
Events      
T = Trace of Precipitation, MM = Missing Value Source: NWS Daily Summary

Daily Weather History Graph

Daily Weather History Graph

Search for Another Location

Airport:

Trip Planner

Search our weather history database for the weather conditions in past years. The results will help you decide how hot, cold, wet, or windy it might be!

Date:

Astronomy

Apr. 29, 2013 Rise Set
Actual Time 6:16 AM MDT 8:03 PM MDT
Civil Twilight 5:48 AM MDT 8:31 PM MDT
Nautical Twilight 5:13 AM MDT 9:06 PM MDT
Astronomical Twilight 4:36 AM MDT 9:43 PM MDT
Moon No Moon Rise 9:41 AM MDT (4/29)
Length of Visible Light 14h 43m
Length of Day
13h 46m
Waning Gibbous, 79% of the Moon is Illuminated
Apr 29
Waning Gibbous
May 2
Last Quarter
May 9
New
May 17
First Quarter
May 24
Full

Hourly Weather History & Observations

Time (MDT) Temp. Windchill Dew Point Humidity Pressure Visibility Wind Dir Wind Speed Gust Speed Precip Events Conditions
12:15 AM 56.5 °F - 25.5 °F 30% 29.97 in 10.0 mi Calm Calm - N/A   Clear
12:35 AM 57.4 °F - 25.7 °F 30% 29.98 in 10.0 mi Calm Calm - N/A   Clear
12:55 AM 54.0 °F - 31.6 °F 43% 29.98 in 10.0 mi NNE 3.5 mph - N/A   Clear
1:15 AM 53.6 °F - 27.0 °F 36% 29.98 in 10.0 mi NE 3.5 mph - N/A   Clear
1:35 AM 53.4 °F - 26.1 °F 35% 29.98 in 10.0 mi ENE 3.5 mph - N/A   Clear
1:55 AM 51.3 °F - 25.9 °F 37% 29.98 in 10.0 mi ENE 9.2 mph - N/A   Clear
2:15 AM 52.7 °F - 23.5 °F 32% 29.97 in 10.0 mi NE 5.8 mph - N/A   Clear
2:35 AM 51.8 °F - 23.5 °F 33% 29.97 in 10.0 mi Calm Calm - N/A   Clear
2:55 AM 53.2 °F - 24.6 °F 33% 29.97 in 10.0 mi Calm Calm - N/A   Clear
3:15 AM 52.5 °F - 25.7 °F 35% 29.96 in 10.0 mi NE 3.5 mph - N/A   Clear
3:35 AM 50.0 °F - 28.4 °F 43% 29.96 in 10.0 mi East 3.5 mph - N/A   Clear
3:55 AM 46.9 °F - 23.9 °F 40% 29.96 in 10.0 mi NE 4.6 mph - N/A   Clear
4:15 AM 45.3 °F 44.0 °F 27.5 °F 50% 29.96 in 10.0 mi ENE 3.5 mph - N/A   Clear
4:35 AM 48.2 °F - 24.8 °F 40% 29.96 in 10.0 mi ENE 4.6 mph - N/A   Clear
4:55 AM 46.6 °F - 26.4 °F 45% 29.96 in 10.0 mi NE 5.8 mph - N/A   Clear
5:15 AM 46.2 °F 43.3 °F 23.7 °F 41% 29.97 in 10.0 mi NE 5.8 mph - N/A   Clear
5:35 AM 46.0 °F 42.5 °F 26.6 °F 47% 29.97 in 10.0 mi NE 6.9 mph - N/A   Clear
5:55 AM 45.7 °F 43.4 °F 26.6 °F 47% 29.97 in 10.0 mi East 4.6 mph - N/A   Clear
6:15 AM 49.1 °F - 24.8 °F 39% 29.98 in 10.0 mi East 5.8 mph - N/A   Clear
6:35 AM 45.3 °F 41.6 °F 24.8 °F 45% 29.98 in 10.0 mi NE 6.9 mph - N/A   Clear
6:55 AM 45.9 °F 43.6 °F 26.6 °F 47% 29.98 in 10.0 mi NE 4.6 mph - N/A   Clear
7:15 AM 48.4 °F - 27.9 °F 45% 29.99 in 10.0 mi NE 3.5 mph - N/A   Clear
7:35 AM 50.9 °F - 26.8 °F 39% 29.99 in 10.0 mi ENE 4.6 mph - N/A   Clear
7:55 AM 52.7 °F - 27.7 °F 38% 29.99 in 10.0 mi East 6.9 mph - N/A   Clear
8:15 AM 54.7 °F - 28.2 °F 36% 29.98 in 10.0 mi ENE 5.8 mph - N/A   Clear
8:35 AM 56.5 °F - 27.7 °F 33% 29.98 in 10.0 mi ENE 6.9 mph - N/A   Clear
8:55 AM 58.5 °F - 27.0 °F 30% 29.98 in 10.0 mi ENE 4.6 mph - N/A   Clear
9:15 AM 61.2 °F - 26.4 °F 27% 29.98 in 10.0 mi ENE 4.6 mph - N/A   Clear
9:35 AM 62.1 °F - 27.1 °F 27% 29.96 in 10.0 mi Calm Calm - N/A   Clear
9:55 AM 63.9 °F - 25.7 °F 24% 29.96 in 10.0 mi ESE 4.6 mph - N/A   Clear
10:15 AM 65.5 °F - 26.2 °F 23% 29.95 in 10.0 mi SSE 3.5 mph - N/A   Clear
10:35 AM 67.1 °F - 23.7 °F 19% 29.94 in 10.0 mi SSE 4.6 mph - N/A   Clear
10:55 AM 68.9 °F - 23.2 °F 18% 29.94 in 10.0 mi Calm Calm - N/A   Clear
11:15 AM 69.8 °F - 25.0 °F 19% 29.93 in 10.0 mi Calm Calm - N/A   Clear
11:35 AM 71.1 °F - 25.2 °F 18% 29.93 in 10.0 mi SSE 4.6 mph - N/A   Clear
11:55 AM 73.2 °F - 26.1 °F 17% 29.92 in 10.0 mi South 5.8 mph - N/A   Clear
12:15 PM 75.6 °F - 23.7 °F 15% 29.91 in 10.0 mi WSW 3.5 mph - N/A   Clear
12:35 PM 77.9 °F - 20.8 °F 12% 29.89 in 10.0 mi WSW 9.2 mph 23.0 mph N/A   Clear
12:55 PM 77.7 °F - 21.4 °F 12% 29.88 in 10.0 mi SSW 9.2 mph - N/A   Clear
1:15 PM 79.9 °F - 21.2 °F 11% 29.87 in 10.0 mi West 15.0 mph 20.7 mph N/A   Clear
1:35 PM 80.4 °F - 20.7 °F 11% 29.87 in 10.0 mi West 9.2 mph 21.9 mph N/A   Clear
1:55 PM 79.7 °F - 19.6 °F 11% 29.86 in 10.0 mi WSW 3.5 mph 19.6 mph N/A   Clear
2:15 PM 81.3 °F - 20.8 °F 11% 29.85 in 10.0 mi WNW 8.1 mph 21.9 mph N/A   Clear
2:35 PM 81.3 °F - 19.2 °F 10% 29.84 in 10.0 mi West 11.5 mph 19.6 mph N/A   Clear
2:55 PM 82.0 °F - 19.0 °F 10% 29.83 in 10.0 mi WSW 10.4 mph 20.7 mph N/A   Clear
3:15 PM 81.7 °F - 18.9 °F 10% 29.82 in 10.0 mi WNW 11.5 mph 18.4 mph N/A   Clear
3:35 PM 81.7 °F - 17.4 °F 9% 29.81 in 10.0 mi West 4.6 mph 18.4 mph N/A   Clear
3:55 PM 82.9 °F - 17.4 °F 9% 29.79 in 10.0 mi WNW 20.7 mph 29.9 mph N/A   Clear
4:15 PM 83.3 °F - 15.1 °F 8% 29.79 in 10.0 mi WNW 13.8 mph 23.0 mph N/A   Clear
4:35 PM 82.6 °F - 16.2 °F 8% 29.77 in 10.0 mi NW 11.5 mph 21.9 mph N/A   Clear
4:55 PM 81.0 °F - 15.4 °F 9% 29.77 in 10.0 mi NW 6.9 mph - N/A   Clear
5:15 PM 82.4 °F - 12.4 °F 7% 29.76 in 10.0 mi West 5.8 mph 11.5 mph N/A   Clear
5:35 PM 82.9 °F - 12.6 °F 7% 29.76 in 10.0 mi WNW 13.8 mph 25.3 mph N/A   Clear
5:55 PM 81.5 °F - 12.2 °F 7% 29.76 in 10.0 mi WSW 13.8 mph 21.9 mph N/A   Clear
6:15 PM 82.2 °F - 11.7 °F 7% 29.76 in 10.0 mi West 17.3 mph 21.9 mph N/A   Clear
6:35 PM 81.1 °F - 11.7 °F 7% 29.75 in 10.0 mi WNW 16.1 mph 19.6 mph N/A   Clear
6:55 PM 79.9 °F - 11.8 °F 8% 29.75 in 10.0 mi WNW 17.3 mph 20.7 mph N/A   Clear
7:15 PM 79.2 °F - 13.6 °F 8% 29.74 in 10.0 mi WNW 12.7 mph 19.6 mph N/A   Clear
7:35 PM 78.1 °F - 13.6 °F 9% 29.74 in 10.0 mi WNW 9.2 mph - N/A   Clear
7:55 PM 77.2 °F - 14.4 °F 9% 29.74 in 10.0 mi NW 10.4 mph - N/A   Clear
8:15 PM 76.1 °F - 14.7 °F 10% 29.74 in 10.0 mi WNW 5.8 mph - N/A   Clear
8:35 PM 74.7 °F - 14.9 °F 10% 29.74 in 10.0 mi WNW 4.6 mph - N/A   Clear
8:55 PM 73.4 °F - 15.6 °F 11% 29.74 in 10.0 mi Calm Calm - N/A   Clear
9:35 PM 68.9 °F - 17.4 °F 14% 29.75 in 10.0 mi SSW 4.6 mph - N/A   Clear
9:55 PM 68.5 °F - 17.6 °F 14% 29.75 in 10.0 mi Calm Calm - N/A   Clear
10:15 PM 61.9 °F - 25.3 °F 25% 29.75 in 10.0 mi Calm Calm - N/A   Clear
10:35 PM 63.3 °F - 22.5 °F 21% 29.75 in 10.0 mi ESE 4.6 mph - N/A   Clear
10:55 PM 59.5 °F - 20.7 °F 22% 29.75 in 10.0 mi East 5.8 mph - N/A   Clear
11:15 PM 60.4 °F - 19.9 °F 21% 29.76 in 10.0 mi ENE 4.6 mph - N/A   Clear
11:35 PM 56.7 °F - 25.9 °F 31% 29.76 in 10.0 mi ENE 3.5 mph - N/A   Clear
11:55 PM 57.9 °F - 23.5 °F 27% 29.75 in 10.0 mi NNE 6.9 mph - N/A   Clear